Regional Weather Roundup
Issued by NWS

Home | Current Version | Previous Version | Graphics & Text | Print | Product List | Glossary On
Versions: 1 2 3 4 5 6 7 8 9 10 11 12 13 14 15 16 17 18 19 20 21 22 23 24 25 26 27 28 29 30 31 32 33 34 35 36 37 38 39 40 41 42 43 44 45 46 47 48 49 50
000
ASUS43 KLSX 031159
RWRMO

WEATHER SUMMARY FOR MISSOURI
NATIONAL WEATHER SERVICE SPRINGFIELD MO
600 AM CST TUE MAR 03 2015

NOTE: "FAIR" INDICATES FEW OR NO CLOUDS BELOW 12,000 FEET WITH NO
       SIGNIFICANT WEATHER AND/OR OBSTRUCTIONS TO VISIBILITY.
       CURRENT SKY AND/OR WEATHER CONDITIONS ARE NOT AVAILABLE FOR
       CHILLICOTHE AND FARMINGTON.

MOZ001>031-035>038-043-044-053-054-031300-
...NORTHERN AND WESTERN MISSOURI...

CITY           SKY/WX    TMP DP  RH WIND       PRES   REMARKS
KANSAS CTY INT DRIZZLE   36  35  96 SW20G28   29.74S WCI  25
6HR MIN TEMP:  33; 6HR MAX TEMP:  36; 6HR PCP: TRACE;

KANSAS C DTWN  CLOUDY    38  35  89 S15G25    29.75F WCI  29
6HR MIN TEMP:  34; 6HR MAX TEMP:  38;

LEE`S SUMMIT   CLOUDY    35  34  96 S16G24    29.74F FOG     WCI  25
6HR MIN TEMP:  33; 6HR MAX TEMP:  35;

ST JOSEPH      CLOUDY    35  34  96 S10       29.74F FOG     WCI  27
6HR MIN TEMP:  33; 6HR MAX TEMP:  35;

CHILLICOTHE      N/A     34  32  92 S12       29.76F WCI  25
6HR MIN TEMP:  32; 6HR MAX TEMP:  34;

KIRKSVILLE     CLOUDY    30  30 100 S14       29.77F FOG     WCI  19
6HR MIN TEMP:  29; 6HR MAX TEMP:  30; 6HR PCP: TRACE;


$$
MOZ066>068-077>081-088>096-101>105-031300-
...SOUTHWEST MISSOURI...

CITY           SKY/WX    TMP DP  RH WIND       PRES   REMARKS
SPRINGFIELD    CLOUDY    34  33  96 S9        29.89R FOG     WCI  27
6HR MIN TEMP:  33; 6HR MAX TEMP:  34; 6HR PCP: TRACE;

JOPLIN         CLOUDY    38  37  97 S16G24    29.87F FOG     WCI  29
6HR MIN TEMP:  35; 6HR MAX TEMP:  38;


$$
MOZ032>034-039>042-045>050-055>058-069>072-031300-
...CENTRAL MISSOURI...

CITY           SKY/WX    TMP DP  RH WIND       PRES   REMARKS
COLUMBIA       CLOUDY    34  31  88 S13       29.84F WCI  25
6HR MIN TEMP:  32; 6HR MAX TEMP:  34;

JEFFERSON CITY CLOUDY    35  32  88 SE8       29.88F WCI  29
6HR MIN TEMP:  33; 6HR MAX TEMP:  36;

ROLLA          CLOUDY    34  32  92 S9        29.88F FOG     WCI  27
6HR MIN TEMP:  33; 6HR MAX TEMP:  34; 6HR PCP: TRACE;

SEDALIA        CLOUDY    36  32  85 S21       29.78F WCI  25
6HR MIN TEMP:  35; 6HR MAX TEMP:  36;

WHITEMAN AFB   CLOUDY    35  33  91 S22       29.77F WCI  24
OSAGE BEACH    CLOUDY    34  30  86 SE8       29.88F WCI  27

$$
MOZ051-052-059>065-031300-
...EAST CENTRAL MISSOURI...

CITY           SKY/WX    TMP DP  RH WIND       PRES   REMARKS
ST LOUIS INTL  LGT RAIN  35  25  66 SE10      29.94F WCI  27
6HR MIN TEMP:  32; 6HR MAX TEMP:  35; 6HR PCP: TRACE;

SPIRIT OF STL  LGT RAIN  32  27  81 E5        29.92F WCI  27
6HR MIN TEMP:  32; 6HR MAX TEMP:  33; 6HR PCP: TRACE;

ST CHARLES     MIX PCPN  32  27  81 SE9       29.93F WCI  24
6HR MIN TEMP:  31; 6HR MAX TEMP:  33; 6HR PCP: TRACE;


$$
MOZ072>076-082>087-097>100-106>115-031300-
...SOUTH CENTRAL AND SOUTHEAST MISSOURI...

CITY           SKY/WX    TMP DP  RH WIND       PRES   REMARKS
CAPE GIRARDEAU CLOUDY    35  31  85 S6        30.04F
6HR MIN TEMP:  34; 6HR MAX TEMP:  36;

FARMINGTON     CLOUDY    34  30  86 S15G21    29.98F WCI  24
6HR MIN TEMP:  34; 6HR MAX TEMP:  34;

POPLAR BLUFF   CLOUDY    34  27  75 S6        30.03F WCI  29
6HR MIN TEMP:  33; 6HR MAX TEMP:  35; 6HR PCP: TRACE;

WEST PLAINS    CLOUDY    33  31  92 S5        29.97S FOG     WCI  29
6HR MIN TEMP:  30; 6HR MAX TEMP:  33;


$$



USA.gov is the U.S. government's official web portal to all federal, state and local government web resources and services.